www.pogodaiklimat.ru

Погода и климат >> Архив погоды >> Россия >> Якутия >> Джарджан


ПОГОДА в Джарджане

  • Прогноз погоды в Джарджане
  • Монитор погоды в Джарджане
  • Климат города

АРХИВ ПОГОДЫ в Джарджане

Время (UTC), дата Ветер
(напр.,м/с)
 
Видим.   Явления Облачность Т
(С)
Тd
(С)
f
(%)
Тe
(С)
Тes
(С)
Комфортность P
(гПа)
Po
(гПа)
Тmin
(С)
Tmax
(С)
R
(мм)
S
(см)
00 19.03 ЮЗ 10-17
{17}
4000 м слабый снег {метель} 10/0
[As op]
-7.8 -10.0 84 -18 -18 1019.2 1014.1 -9.7 0.3 29
03 19.03 ЮЗ 12-17
{17}
10 км слабый снег 10/0
[As op]
-7.1 -9.2 85 -18 -18 1019.2 1014.2
06 19.03 ЮЗ 8-17
{17}
20 км слабый снег {метель} 10/0
[As op]
-6.0 -8.3 84 -15 -15 1019.7 1014.7
09 19.03 ЮЗ 4
{17}
4000 м слабый снег {метель} 10/0
[As op]
-6.2 -7.4 91 -13 -13 1020.5 1015.5
00 20.03 Ю 5
{12}
10 км слабый снег {метель} 10/0
[As op]
-4.1 -5.3 91 -11 -11 1022.2 1017.2 -5.9 2 29
03 20.03 ЮЗ 4 20 км слабый снег {метель} 10/0
[As op]
-3.7 -7.0 78 -10 -9 1022.5 1017.5
06 20.03 Ю 3 50 км {снег, метель} 9/4 1000 м
[Sc Ac trans]
-2.3 -6.3 74 -7 -7 1022.7 1017.8
09 20.03 Ю 1 50 км 9/6 1000 м
[Sc Ac trans]
-2.0 -6.6 71 -4 -4 1023.6 1018.7
21 20.03 штиль 0 50 км 4/4 1000 м
[Sc]
-8.8 -10.3 89 -9 -9 1023.9 1018.8
00 21.03 штиль 0 50 км ясно -10.5 -11.8 90 -11 -9 1023.7 1018.6 -15.7 30
03 21.03 Ю 1 50 км 8/0
[Cs]
-5.0 -8.6 76 -7 -4 1022.7 1017.7
06 21.03 З 1 50 км 8/0
[Cs]
-3.3 -7.2 74 -5 -3 1021.6 1016.6
09 21.03 З 1 50 км 9/4 1000 м
[Sc Ac trans Ci fib]
-4.0 -9.8 64 -6 -6 1021.2 1016.2
21 21.03 штиль 0 50 км 3/0
[Ci fib]
-12.8 -14.1 90 -13 -13 1014.8
00 22.03 З 2 50 км 10/0
[Ci fib]
-14.4 -15.0 95 -19 -18 1020.4 1015.2 -14.8 29
03 22.03 З 2 50 км 10/0
[Cs]
-9.8 -11.5 87 -14 -12 1021.0 1015.9
06 22.03 З 1 50 км 6/0
[Cc]
-7.1 -10.9 74 -9 -7 1021.6 1016.6
09 22.03 штиль 0 50 км 3/0
[Ci fib]
-4.9 -12.7 54 -5 -5 1022.8 1017.8
15 22.03 штиль 0 50 км ясно -12.5 -13.2 94 -13 -13 1024.6 1019.5
18 22.03 штиль 0 50 км ясно -13.6 -14.2 95 -14 -14 1025.3 1020.1
21 22.03 штиль 0 50 км 3/0
[Ac trans]
-17.9 -19.8 85 -18 -18 1024.6 1019.3
00 23.03 штиль 0 50 км 8/0
[Ci fib]
-16.1 -18.0 85 -16 -15 1024.1 1018.9 -18.1 28
03 23.03 штиль 0 50 км 10/0
[Ci fib]
-12.0 -14.7 80 -12 -8 1022.8 1017.7
06 23.03 штиль 0 50 км 10/0
[Ci fib]
-7.1 -11.9 69 -8 -5 1020.4 1015.4
09 23.03 штиль 0 50 км 10/0
[Ci fib]
-5.1 -10.5 66 -6 -5 1019.1 1014.1
12 23.03 штиль 0 50 км 10/0
[Ci fib]
-8.3 -12.0 75 -9 -9 1018.5 1013.4 -4.8
15 23.03 штиль 0 50 км 10/0
[Ci fib]
-9.4 -12.4 79 -10 -10 1018.1 1013.0
18 23.03 Ю 2 50 км 10/0
[Ci fib]
-9.8 -12.4 81 -14 -14 1016.8 1011.7
21 23.03 Ю 2 50 км 10/0
[Ci fib]
-10.3 -12.3 85 -15 -15 1016.1 1011.0
00 24.03 Ю 2 20 км слабый снег 10/0
[As op]
-9.5 -12.5 79 -14 -14 1016.5 1011.4 -10.3 0.0 28
03 24.03 ЮЗ 4 10 км слабый снег 10/0
[As op]
-7.7 -10.3 82 -14 -14 1016.1 1011.1
06 24.03 ЮЗ 2 10 км слабый снег 10/0
[Cs]
-5.6 -9.4 75 -10 -8 1016.1 1011.1
09 24.03 ЮЗ 1 20 км слабый снег 10/0
[Cs]
-6.3 -8.2 86 -9 -8 1016.3 1011.3
12 24.03 штиль 0 50 км {снег} 10/0
[Ci fib]
-10.0 -10.8 94 -10 -10 1017.2 1012.1 -5.4 1
15 24.03 штиль 0 50 км 10/0
[Ci fib]
-11.1 -11.7 95 -11 -11 1017.6 1012.5
18 24.03 штиль 0 50 км 8/0
[Ci fib]
-14.1 -14.7 95 -14 -14 1017.0 1011.8
21 24.03 штиль 0 50 км 10/0
[Ci fib]
-15.5 -16.8 90 -16 -16 1016.8 1011.6
00 25.03 штиль 0 50 км 10/0
[As op]
-9.5 -10.7 91 -10 -10 1016.5 1011.4 -17.9 29
03 25.03 штиль 0 50 км 10/0
[As op]
-9.5 -10.7 91 -10 -9 1016.5 1011.4 -17.9 29
06 25.03 ЮЗ 3 20 км слабый снег 10/0
[As op]
-5.3 -7.1 87 -11 -10 1014.1 1009.1
09 25.03 ЮЗ 6 10 км слабый снег {метель} 10/0
[As op]
-3.8 -6.7 80 -11 -11 1012.6 1007.6
15 25.03 Ю 7 10 км слабый снег {метель} 10/0
[As op]
-4.0 -6.6 82 -12 -12 1010.0 1005.0
18 25.03 Ю 7 10 км слабый снег {метель} 10/0
[As op]
-4.6 -6.6 86 -13 -13 1008.8 1003.8
21 25.03 Ю 5 50 км позёмок {снег, метель} 4/0
[Ci fib]
-5.9 -9.4 76 -13 -13 1009.7 1004.8

 

Местоположение метеостанции Джарджан (Якутия, Россия): широта 68.73 долгота 124.00 высота над уровнем моря 39 м.

В архиве по умолчанию представлена погода в Джарджане за последнюю неделю. Архивные данные за месяц целиком и за предыдущие месяцы, начиная с января 2011 года, Вы можете получить, выбрав интересующий диапазон дат из раскрывающегося списка и нажав кнопку "Ввод!".

Внимание! Время в таблицах - всемирное. Для получения местного времени необходимо прибавить поправку, которая в Джарджане равна 9 ч.

Смотрите также архив погоды в соседних городах и на ближайших метеорологических станциях:

Погода в Жиганске (Якутия, Россия) (219 км)
Погода в Сухане (Якутия, Россия) (231 км)
Погода в Кюсюре (Якутия, Россия) (253 км)
Погода в Батагай-Алыте (Якутия, Россия) (284 км)
Погода в Тюмяти (Якутия, Россия) (355 км)
Погода в Тикси (Якутия, Россия) (367 км)
Погода в Бестяхской Звероферме (Якутия, Россия) (382 км)
Погода в Екюччю (Якутия, Россия) (387 км)
Погода в Верхоянске (Якутия, Россия) (409 км)
Погода на Мысе Быков (Якутия, Россия) (410 км)

Пояснения к столбцам:

Ветер - указаны скорость ветра в м/с - средняя за 10 мин, порывы в срок и между сроками (в фигурных скобках) и направление, откуда дует ветер: С - северный, СВ - северо-восточный, В - восточный, ЮВ - юго-восточный, Ю - южный, ЮЗ - юго-западный, З - западный, СЗ - северо-западный.
Видимость - горизонтальная дальность видимости в метрах или километрах. При видимости от 1 до 10 км при отсутствии осадков обычно наблюдается дымка, при ухудшении видимости до 1 км и менее - туман. В сухую погоду видимость может ухудшаться дымом, пылью или мглою.
Явления - указаны атмосферные явления, наблюдавшиеся в срок или в последний час перед сроком; фигурными скобками обозначены явления, наблюдавшиеся между сроками (за 1-3 часа до срока); квадратными скобками обозначены град или гололедные отложения с указанием их диаметра в мм.
Облачность - указаны через наклонную черту общая и нижняя облачность в баллах и высота нижней границы облаков в метрах; квадратными скобками обозначены формы облаков: Ci - перистые, Cs - перисто-слоистые, Cc - перисто-кучевые, Ac - высококучевые, As - высокослоистые, Sc - слоисто-кучевые, Ns - слоисто-дождевые, Cu - кучевые, Cb - кучево-дождевые. Подробнее классификацию облаков см. в Атласе облаков (PDF).
T - Температура воздуха - температура, измеренная на высоте 2 м над землей.
Td - Температура точки росы - температура, при понижении до которой содержащийся в воздухе водяной пар достигнет насыщения.
f - Относительная влажность воздуха - влажноcть воздуха, измеренная на высоте 2 м над землей.
Te - Эффективная температура - температура, которую ощущает одетый по сезону человек в тени. Характеристика душности погоды. При расчете учитывается влияние влажности воздуха и скорости ветра на теплоощущения человека.
Tes - Эффективная температура на солнце - температура, которую ощущает человек, с поправкой на солнечный нагрев. Характеристика знойности погоды. Зависит от высоты солнца над горизонтом, облачности и скорости ветра. Ночью, в пасмурную погоду, а также при ветре 12 м/с и более поправка равна нулю.
P - Атмосферное давление - приведенное к уровню моря атмосферное давление.
Po - Атмосферное давление - измеренное на уровне метеостанции атмосферное давление.
Tmin - Минимальная температура - минимум температуры воздуха на высоте 2 м над землей.
Tmax - Максимальная температура - максимум температуры воздуха на высоте 2 м над землей.
R - Количество осадков - Количество выпавших осадков, мм. При наведении курсора мыши на число - период времени, за который выпало указанное количество осадков.
S - Снежный покров - Высота снежного покрова, см. При наведении курсора мыши на число - состояние снежного покрова и степень покрытия местности в баллах.